Randolph AFB, TX

2:02 PM CDT on September 26, 2017 (GMT -0500)
Randolph Air Force Base

Weather History for KRND - May, 2013

Change the Weather History Date:

Thursday, May 16, 2013

  Actual Average Record
Temperature  
Mean Temperature 83 °F -  
Max Temperature 95 °F 84 °F 95 °F (2003)
Min Temperature 71 °F 65 °F 53 °F (2006)
Cooling Degree Days 18    
Growing Degree Days 33 (Base 50)    
Moisture  
Dew Point 71 °F    
Average Humidity 81    
Maximum Humidity 100    
Minimum Humidity 41    
Precipitation  
Precipitation 0.00 in - - ()
Sea Level Pressure  
Sea Level Pressure 29.81 in    
Wind  
Wind Speed 13 mph (SSE)    
Max Wind Speed 20 mph    
Max Gust Speed 21 mph    
Visibility 10 miles    
Events      
Averages and records for this station are not official NWS values.
T = Trace of Precipitation, MM = Missing Value Source: NWS Daily Summary

Daily Weather History Graph

Daily Weather History Graph

Search for Another Location

Airport or City:

Trip Planner

Search our weather history database for the weather conditions in past years. The results will help you decide how hot, cold, wet, or windy it might be!

Date:

Astronomy

May. 16, 2013 Rise Set
Actual Time 6:39 AM CDT 8:19 PM CDT
Civil Twilight 6:13 AM CDT 8:45 PM CDT
Nautical Twilight 5:42 AM CDT 9:17 PM CDT
Astronomical Twilight 5:09 AM CDT 9:49 PM CDT
Moon 12:06 PM CDT (5/16) 12:47 AM CDT (5/16)
Length of Visible Light 14h 31m
Length of Day
13h 39m
Waxing Crescent, 36% of the Moon is Illuminated
May 16
Waxing Crescent
May 17
First Quarter
May 24
Full
May 31
Last Quarter
Jun 8
New

Hourly Weather History & Observations

Time (CDT) Temp. Heat Index Dew Point Humidity Pressure Visibility Wind Dir Wind Speed Gust Speed Precip Events Conditions
12:58 AM 73.4 °F - 71.1 °F 92% 29.85 in 10.0 mi South 16.1 mph - N/A   Overcast
1:58 AM 72.9 °F - 70.7 °F 93% 29.84 in 10.0 mi South 15.0 mph - N/A   Overcast
2:34 AM 71.6 °F - 71.6 °F 100% 29.86 in 10.0 mi South 15.0 mph - N/A   Overcast
2:58 AM 72.3 °F - 70.9 °F 95% 29.83 in 10.0 mi South 13.8 mph - N/A   Overcast
3:52 AM 71.6 °F - 69.8 °F 94% 29.84 in 10.0 mi South 12.7 mph - N/A   Overcast
3:58 AM 72.1 °F - 70.7 °F 95% 29.82 in 10.0 mi South 12.7 mph - N/A   Overcast
4:58 AM 72.3 °F - 70.3 °F 93% 29.83 in 10.0 mi South 9.2 mph - N/A   Overcast
5:16 AM 71.6 °F - 69.8 °F 94% 29.85 in 10.0 mi SSE 9.2 mph - N/A   Overcast
5:58 AM 72.0 °F - 69.8 °F 93% 29.83 in 10.0 mi SSE 10.4 mph - N/A   Mostly Cloudy
6:58 AM 71.2 °F - 69.4 °F 94% 29.83 in 10.0 mi SSE 10.4 mph - N/A   Mostly Cloudy
7:58 AM 71.2 °F - 69.8 °F 95% 29.84 in 10.0 mi SSE 13.8 mph - N/A   Overcast
8:17 AM 71.6 °F - 69.8 °F 94% 29.86 in 10.0 mi SSE 12.7 mph - N/A   Overcast
8:55 AM 71.6 °F - 69.8 °F 94% 29.86 in 10.0 mi SSE 13.8 mph - N/A   Overcast
9:54 AM 73.4 °F - 69.8 °F 88% 29.86 in 10.0 mi South 11.5 mph - N/A   Overcast
9:55 AM 73.4 °F - 69.8 °F 88% 29.86 in 10.0 mi South 11.5 mph - N/A   Overcast
10:55 AM 75.2 °F - 69.8 °F 83% 29.86 in 10.0 mi South 10.4 mph - N/A   Overcast
10:56 AM 75.2 °F - 69.8 °F 83% 29.86 in 10.0 mi South 11.5 mph - N/A   Overcast
11:55 AM 80.6 °F 84.6 °F 71.6 °F 74% 29.84 in 10.0 mi SSW 11.5 mph - N/A   Scattered Clouds
12:57 PM 84.2 °F 89.6 °F 71.6 °F 66% 29.82 in 10.0 mi SSW 12.7 mph 20.7 mph N/A   Scattered Clouds
12:58 PM 84.2 °F 89.6 °F 71.6 °F 66% 29.82 in 10.0 mi SSW 11.5 mph 20.7 mph N/A   Scattered Clouds
1:55 PM 87.8 °F 93.8 °F 71.6 °F 58% 29.80 in 10.0 mi South 13.8 mph 19.6 mph N/A   Partly Cloudy
2:55 PM 91.4 °F 96.8 °F 69.8 °F 49% 29.78 in 10.0 mi Variable 5.8 mph 17.3 mph N/A   Clear
3:55 PM 93.2 °F 98.8 °F 69.8 °F 46% 29.76 in 10.0 mi SSW 10.4 mph - N/A   Clear
4:24 PM 93.2 °F 97.7 °F 68.0 °F 44% 29.75 in 10.0 mi South 11.5 mph 18.4 mph N/A   Partly Cloudy
4:58 PM 94.6 °F 100.0 °F 69.1 °F 43% 29.70 in 10.0 mi South 11.5 mph 20.7 mph N/A   Partly Cloudy
5:58 PM 95.2 °F 99.9 °F 68.2 °F 41% 29.70 in 10.0 mi South 12.7 mph 18.4 mph N/A   Clear
6:58 PM 90.1 °F 99.4 °F 74.1 °F 59% 29.70 in 10.0 mi SE 19.6 mph - N/A   Clear
7:58 PM 84.6 °F 92.4 °F 74.5 °F 72% 29.72 in 10.0 mi SE 16.1 mph - N/A   Clear
8:58 PM 80.6 °F 86.0 °F 75.0 °F 83% 29.77 in 10.0 mi SE 10.4 mph - N/A   Clear
9:58 PM 77.9 °F - 74.8 °F 90% 29.79 in 10.0 mi SE 10.4 mph - N/A   Clear
10:58 PM 75.7 °F - 74.8 °F 97% 29.81 in 10.0 mi SE 10.4 mph - N/A   Clear
11:16 PM 75.2 °F - 75.2 °F 100% 29.81 in 10.0 mi SE 10.4 mph - N/A   Mostly Cloudy
11:25 PM 75.2 °F - 75.2 °F 100% 29.81 in 10.0 mi SSE 10.4 mph - N/A   Mostly Cloudy
11:58 PM 75.4 °F - 75.0 °F 99% 29.81 in 10.0 mi SSE 10.4 mph - N/A   Overcast